ARG1718 SABE-SAAR

Flight info

Callsign ARG1718
Flight time 0h 33m
Altitude 24000
Route ATOVO4B ATOVO W5 ESKON
Aircraft A320/M-SDE3FGHIRWY/LB1

Departure

Time 2026-05-05 22:58
Airport Aeroparque Jorge Newbery (SABE)

Arrival

Time 2026-05-05 23:31
Airport Rosario Islas Malvinas International Airport (SAAR)
Time Latitude Longitude Altitude Speed Heading
2026-05-05 22:38 -34.55826 -58.41210 27 ft 0 kts 41°
2026-05-05 22:42 -34.55827 -58.41210 27 ft 0 kts 41°
2026-05-05 22:48 -34.55827 -58.41211 27 ft 0 kts 41°
2026-05-05 22:50 -34.55835 -58.41219 28 ft 3 kts 36°
2026-05-05 22:50 -34.55847 -58.41229 28 ft 2 kts
2026-05-05 22:50 -34.55857 -58.41229 28 ft 2 kts 330°
2026-05-05 22:51 -34.55869 -58.41219 28 ft 2 kts 313°
2026-05-05 22:51 -34.55876 -58.41210 28 ft 1 kts 311°
2026-05-05 22:51 -34.55881 -58.41203 28 ft 1 kts 310°
2026-05-05 22:51 -34.55886 -58.41196 28 ft 1 kts 310°
2026-05-05 22:52 -34.55887 -58.41195 27 ft 0 kts 310°
2026-05-05 22:52 -34.55880 -58.41204 27 ft 7 kts 309°
2026-05-05 22:53 -34.55871 -58.41277 27 ft 15 kts 226°
2026-05-05 22:53 -34.55897 -58.41364 27 ft 13 kts 291°
2026-05-05 22:53 -34.55857 -58.41463 27 ft 12 kts 298°
2026-05-05 22:53 -34.55821 -58.41546 27 ft 11 kts 298°
2026-05-05 22:54 -34.55787 -58.41624 27 ft 10 kts 296°
2026-05-05 22:54 -34.55758 -58.41696 26 ft 9 kts 296°
2026-05-05 22:54 -34.55729 -58.41766 30 ft 9 kts 297°
2026-05-05 22:54 -34.55691 -58.41834 26 ft 12 kts 305°
2026-05-05 22:55 -34.55635 -58.41932 27 ft 14 kts 304°
2026-05-05 22:55 -34.55583 -58.42025 27 ft 13 kts 304°
2026-05-05 22:55 -34.55533 -58.42109 27 ft 12 kts 307°
2026-05-05 22:55 -34.55486 -58.42186 27 ft 11 kts 306°
2026-05-05 22:56 -34.55443 -58.42256 27 ft 10 kts 306°
2026-05-05 22:56 -34.55401 -58.42321 27 ft 10 kts 308°
2026-05-05 22:56 -34.55369 -58.42387 27 ft 9 kts 287°
2026-05-05 22:56 -34.55369 -58.42485 27 ft 14 kts 243°
2026-05-05 22:57 -34.55415 -58.42484 27 ft 0 kts 126°
2026-05-05 22:57 -34.55416 -58.42482 27 ft 2 kts 126°
2026-05-05 22:57 -34.55514 -58.42319 29 ft 53 kts 126°
2026-05-05 22:57 -34.55856 -58.41693 29 ft 122 kts 123°
2026-05-05 22:58 -34.56392 -58.40723 377 ft 140 kts 123°
2026-05-05 22:58 -34.56937 -58.39702 895 ft 152 kts 121°
2026-05-05 22:58 -34.57386 -58.38483 1365 ft 166 kts 97°
2026-05-05 22:58 -34.57407 -58.37041 1890 ft 176 kts 81°
2026-05-05 22:59 -34.57204 -58.35568 2543 ft 178 kts 72°
2026-05-05 22:59 -34.56823 -58.34126 3175 ft 181 kts 64°
2026-05-05 22:59 -34.56257 -58.32753 3778 ft 183 kts 51°
2026-05-05 22:59 -34.55375 -58.31610 4216 ft 195 kts 33°
2026-05-05 23:00 -34.52886 -58.29552 4926 ft 236 kts 28°
2026-05-05 23:00 -34.51415 -58.28452 5300 ft 260 kts 24°
2026-05-05 23:00 -34.49662 -58.27744 5908 ft 270 kts
2026-05-05 23:01 -34.47785 -58.27773 6741 ft 271 kts 345°
2026-05-05 23:01 -34.46017 -58.28546 7577 ft 272 kts 326°
2026-05-05 23:01 -34.44446 -58.29829 8448 ft 275 kts 321°
2026-05-05 23:01 -34.42861 -58.31164 9325 ft 280 kts 321°
2026-05-05 23:02 -34.41285 -58.32575 10136 ft 283 kts 312°
2026-05-05 23:02 -34.40094 -58.34524 10494 ft 299 kts 294°
2026-05-05 23:02 -34.39116 -58.36854 10760 ft 322 kts 293°
2026-05-05 23:02 -34.38096 -58.39330 11319 ft 333 kts 293°
2026-05-05 23:03 -34.37056 -58.41852 12064 ft 337 kts 293°
2026-05-05 23:03 -34.36018 -58.44361 12871 ft 339 kts 292°
2026-05-05 23:03 -34.34957 -58.46915 13699 ft 342 kts 292°
2026-05-05 23:03 -34.33882 -58.49490 14417 ft 344 kts 292°
2026-05-05 23:04 -34.32797 -58.52081 15115 ft 347 kts 292°
2026-05-05 23:04 -34.31699 -58.54696 15821 ft 350 kts 293°
2026-05-05 23:04 -34.30590 -58.57328 16520 ft 353 kts 292°
2026-05-05 23:04 -34.29470 -58.59982 17203 ft 356 kts 293°
2026-05-05 23:05 -34.28339 -58.62656 17881 ft 359 kts 293°
2026-05-05 23:05 -34.27201 -58.65353 18507 ft 362 kts 292°
2026-05-05 23:05 -34.26054 -58.68072 19101 ft 364 kts 292°
2026-05-05 23:05 -34.24898 -58.70809 19704 ft 367 kts 293°
2026-05-05 23:06 -34.23736 -58.73561 20323 ft 369 kts 292°
2026-05-05 23:06 -34.22564 -58.76336 20928 ft 371 kts 292°
2026-05-05 23:06 -34.21388 -58.79121 21521 ft 374 kts 292°
2026-05-05 23:06 -34.20205 -58.81928 22087 ft 376 kts 292°
2026-05-05 23:07 -34.19013 -58.84752 22642 ft 379 kts 292°
2026-05-05 23:07 -34.17808 -58.87595 23188 ft 381 kts 293°
2026-05-05 23:07 -34.16596 -58.90449 23685 ft 383 kts 292°
2026-05-05 23:07 -34.15379 -58.93313 23900 ft 384 kts 293°
2026-05-05 23:08 -34.14150 -58.96207 23954 ft 390 kts 293°
2026-05-05 23:08 -34.12904 -58.99134 23962 ft 394 kts 293°
2026-05-05 23:08 -34.11651 -59.02075 23961 ft 394 kts 293°
2026-05-05 23:08 -34.10396 -59.05018 23961 ft 395 kts 293°
2026-05-05 23:09 -34.09138 -59.07963 23959 ft 395 kts 293°
2026-05-05 23:09 -34.07897 -59.10872 23957 ft 395 kts 293°
2026-05-05 23:09 -34.06615 -59.13849 23956 ft 396 kts 295°
2026-05-05 23:09 -34.05076 -59.16573 23955 ft 401 kts 304°
2026-05-05 23:10 -34.03286 -59.19155 23951 ft 402 kts 305°
2026-05-05 23:10 -34.01489 -59.21737 23955 ft 402 kts 305°
2026-05-05 23:10 -33.99691 -59.24318 23945 ft 402 kts 305°
2026-05-05 23:10 -33.97892 -59.26900 23946 ft 402 kts 305°
2026-05-05 23:11 -33.96096 -59.29482 23944 ft 402 kts 305°
2026-05-05 23:11 -33.94301 -59.32063 23944 ft 402 kts 305°
2026-05-05 23:11 -33.92506 -59.34646 23940 ft 402 kts 305°
2026-05-05 23:11 -33.91318 -59.36354 23939 ft 402 kts 305°
2026-05-05 23:12 -33.89522 -59.38937 23933 ft 402 kts 305°
2026-05-05 23:12 -33.87727 -59.41516 23934 ft 402 kts 305°
2026-05-05 23:12 -33.85930 -59.44094 23932 ft 402 kts 305°
2026-05-05 23:12 -33.84131 -59.46672 23933 ft 402 kts 305°
2026-05-05 23:13 -33.82331 -59.49249 23932 ft 402 kts 305°
2026-05-05 23:13 -33.80533 -59.51820 23927 ft 402 kts 305°
2026-05-05 23:13 -33.78729 -59.54396 23924 ft 402 kts 305°
2026-05-05 23:13 -33.76926 -59.56967 23924 ft 402 kts 305°
2026-05-05 23:14 -33.75122 -59.59538 23922 ft 402 kts 305°
2026-05-05 23:14 -33.73315 -59.62111 23922 ft 402 kts 305°
2026-05-05 23:14 -33.71514 -59.64675 23923 ft 402 kts 305°
2026-05-05 23:14 -33.69710 -59.67251 23918 ft 402 kts 305°
2026-05-05 23:15 -33.67909 -59.69818 23920 ft 402 kts 305°
2026-05-05 23:15 -33.66103 -59.72389 23919 ft 403 kts 306°
2026-05-05 23:15 -33.64303 -59.74947 23927 ft 397 kts 306°
2026-05-05 23:15 -33.62530 -59.77454 23914 ft 393 kts 306°
2026-05-05 23:16 -33.60775 -59.79931 22953 ft 389 kts 306°
2026-05-05 23:16 -33.59007 -59.82436 21462 ft 397 kts 306°
2026-05-05 23:16 -33.57246 -59.84931 20895 ft 382 kts 306°
2026-05-05 23:16 -33.55574 -59.87287 20647 ft 362 kts 306°
2026-05-05 23:17 -33.53967 -59.89546 20198 ft 353 kts 306°
2026-05-05 23:17 -33.52379 -59.91790 19734 ft 352 kts 306°
2026-05-05 23:17 -33.50802 -59.94021 19288 ft 350 kts 306°
2026-05-05 23:17 -33.49228 -59.96244 18834 ft 350 kts 306°
2026-05-05 23:18 -33.47678 -59.98432 18395 ft 348 kts 306°
2026-05-05 23:18 -33.46113 -60.00636 17893 ft 346 kts 306°
2026-05-05 23:18 -33.44556 -60.02823 17423 ft 344 kts 306°
2026-05-05 23:18 -33.43009 -60.04999 16963 ft 343 kts 306°
2026-05-05 23:19 -33.41467 -60.07171 16482 ft 342 kts 306°
2026-05-05 23:19 -33.39935 -60.09327 16000 ft 340 kts 306°
2026-05-05 23:19 -33.38403 -60.11481 15521 ft 339 kts 306°
2026-05-05 23:19 -33.36871 -60.13631 15026 ft 338 kts 307°
2026-05-05 23:20 -33.35344 -60.15769 14530 ft 338 kts 307°
2026-05-05 23:20 -33.33814 -60.17910 14024 ft 339 kts 307°
2026-05-05 23:20 -33.32285 -60.20048 13486 ft 339 kts 307°
2026-05-05 23:20 -33.30755 -60.22192 12944 ft 338 kts 307°
2026-05-05 23:21 -33.29232 -60.24329 12413 ft 336 kts 307°
2026-05-05 23:21 -33.27720 -60.26449 11889 ft 335 kts 308°
2026-05-05 23:21 -33.26211 -60.28564 11355 ft 334 kts 308°
2026-05-05 23:21 -33.24705 -60.30670 10811 ft 332 kts 309°
2026-05-05 23:22 -33.23318 -60.32830 10571 ft 321 kts 300°
2026-05-05 23:22 -33.22351 -60.35155 10456 ft 306 kts 290°
2026-05-05 23:22 -33.21583 -60.37463 10337 ft 294 kts 291°
2026-05-05 23:22 -33.20833 -60.39691 10120 ft 286 kts 291°
2026-05-05 23:23 -33.20092 -60.41875 9900 ft 282 kts 291°
2026-05-05 23:23 -33.19356 -60.44042 9761 ft 281 kts 291°
2026-05-05 23:23 -33.18622 -60.46206 9635 ft 281 kts 291°
2026-05-05 23:23 -33.17891 -60.48365 9293 ft 283 kts 292°
2026-05-05 23:24 -33.17157 -60.50544 8827 ft 283 kts 292°
2026-05-05 23:24 -33.16420 -60.52728 8382 ft 283 kts 292°
2026-05-05 23:24 -33.15693 -60.54885 7924 ft 283 kts 292°
2026-05-05 23:24 -33.14957 -60.57062 7434 ft 282 kts 292°
2026-05-05 23:25 -33.14231 -60.59207 6882 ft 276 kts 292°
2026-05-05 23:25 -33.13515 -60.61317 6388 ft 274 kts 293°
2026-05-05 23:25 -33.12801 -60.63425 5887 ft 274 kts 293°
2026-05-05 23:25 -33.12088 -60.65525 5399 ft 272 kts 293°
2026-05-05 23:26 -33.11389 -60.67583 5182 ft 261 kts 293°
2026-05-05 23:26 -33.10727 -60.69535 5060 ft 246 kts 293°
2026-05-05 23:26 -33.10101 -60.71380 4867 ft 236 kts 294°
2026-05-05 23:26 -33.09490 -60.73177 4572 ft 232 kts 293°
2026-05-05 23:27 -33.08875 -60.74983 4091 ft 236 kts 294°
2026-05-05 23:27 -33.08251 -60.76820 3580 ft 240 kts 294°
2026-05-05 23:27 -33.07636 -60.78628 3406 ft 229 kts 294°
2026-05-05 23:27 -33.06986 -60.80290 3311 ft 214 kts 308°
2026-05-05 23:28 -33.05893 -60.81384 3227 ft 200 kts 336°
2026-05-05 23:28 -33.04564 -60.81704 2935 ft 196 kts
2026-05-05 23:28 -33.03228 -60.81425 2602 ft 193 kts 11°
2026-05-05 23:28 -33.01923 -60.81122 2298 ft 189 kts 11°
2026-05-05 23:29 -33.00649 -60.80829 2020 ft 183 kts 12°
2026-05-05 23:29 -32.99452 -60.80551 1769 ft 166 kts 12°
2026-05-05 23:29 -32.98381 -60.80306 1555 ft 148 kts 12°
2026-05-05 23:29 -32.97413 -60.80085 1341 ft 137 kts 12°
2026-05-05 23:30 -32.96505 -60.79879 1151 ft 133 kts 13°
2026-05-05 23:30 -32.95592 -60.79670 962 ft 131 kts 13°
2026-05-05 23:30 -32.94703 -60.79466 774 ft 133 kts 13°
2026-05-05 23:30 -32.93784 -60.79255 583 ft 135 kts 14°
2026-05-05 23:31 -32.92859 -60.79047 386 ft 136 kts 13°
2026-05-05 23:31 -32.91931 -60.78837 220 ft 136 kts 14°
2026-05-05 23:31 -32.91011 -60.78624 103 ft 126 kts 13°
2026-05-05 23:31 -32.90368 -60.78471 95 ft 43 kts 11°
2026-05-05 23:32 -32.90122 -60.78410 97 ft 30 kts 12°
2026-05-05 23:32 -32.89913 -60.78359 96 ft 31 kts 11°
2026-05-05 23:32 -32.89697 -60.78320 99 ft 32 kts
2026-05-05 23:32 -32.89474 -60.78270 98 ft 33 kts 12°
2026-05-05 23:33 -32.89242 -60.78211 96 ft 35 kts 11°
2026-05-05 23:33 -32.89096 -60.78146 97 ft 17 kts 39°
2026-05-05 23:33 -32.89038 -60.78148 97 ft 4 kts 272°
2026-05-05 23:33 -32.89109 -60.78186 98 ft 19 kts 186°
2026-05-05 23:34 -32.89273 -60.78218 97 ft 28 kts 197°
2026-05-05 23:34 -32.89438 -60.78259 99 ft 24 kts 190°
2026-05-05 23:34 -32.89603 -60.78292 98 ft 24 kts 191°
2026-05-05 23:34 -32.89773 -60.78333 100 ft 25 kts 191°
2026-05-05 23:35 -32.89950 -60.78373 97 ft 27 kts 190°
2026-05-05 23:35 -32.90134 -60.78410 99 ft 27 kts 192°
2026-05-05 23:35 -32.90323 -60.78456 96 ft 28 kts 190°
2026-05-05 23:35 -32.90515 -60.78502 96 ft 28 kts 191°
2026-05-05 23:36 -32.90705 -60.78544 96 ft 28 kts 192°
2026-05-05 23:36 -32.90853 -60.78571 100 ft 17 kts 177°
2026-05-05 23:36 -32.90969 -60.78536 98 ft 18 kts 160°
2026-05-05 23:36 -32.91089 -60.78470 96 ft 20 kts 147°
2026-05-05 23:37 -32.91202 -60.78369 96 ft 21 kts 140°
2026-05-05 23:37 -32.91319 -60.78257 95 ft 22 kts 142°
2026-05-05 23:37 -32.91444 -60.78171 98 ft 20 kts 186°
2026-05-05 23:37 -32.91563 -60.78207 97 ft 9 kts 149°
2026-05-05 23:38 -32.91562 -60.78184 97 ft 1 kts 76°
2026-05-05 23:38 -32.91571 -60.78155 97 ft 5 kts 117°
2026-05-05 23:38 -32.91583 -60.78120 96 ft 4 kts 111°
2026-05-05 23:38 -32.91584 -60.78117 96 ft 0 kts 111°